• In Portugal
  • List of Countries
  • For 7 days
  • Water Temperature
  • Satellite Maps
  • Weather Map
  • Weather Widgets
  • user-avatar
    Login

    Hourly Weather Resht

    Today, 26 September, Tuesday

    Time Temperature Precipitation Wind Pressure Humidity
    00:00 +24°C° 0.1 mm 2 mps 765 mmHg 92%
    01:00 +24°C° 0.2 mm 2 mps 765 mmHg 92%
    02:00 +23°C° 0.2 mm 1 mps 765 mmHg 92%
    03:00 +23°C° 0.2 mm 1 mps 764 mmHg 92%
    04:00 +23°C° 0.2 mm 1 mps 764 mmHg 92%
    05:00 +23°C° 0.2 mm 1 mps 764 mmHg 92%
    06:00 +23°C° 0.2 mm 1 mps 764 mmHg 92%
    07:00 +24°C° 0.2 mm 1 mps 764 mmHg 86%
    08:00 +25°C° 0.2 mm 1 mps 764 mmHg 80%
    09:00 +26°C° 0.2 mm 2 mps 764 mmHg 74%
    10:00 +27°C° 0.1 mm 2 mps 764 mmHg 72%
    11:00 +28°C° 0.1 mm 2 mps 763 mmHg 70%
    12:00 +28°C° 0.1 mm 2 mps 763 mmHg 68%
    13:00 +28°C° 0.1 mm 2 mps 763 mmHg 71%
    14:00 +27°C° 0.1 mm 3 mps 762 mmHg 75%
    15:00 +27°C° 0.1 mm 3 mps 762 mmHg 78%
    16:00 +26°C° 0.1 mm 3 mps 762 mmHg 81%
    17:00 +25°C° 0.1 mm 2 mps 762 mmHg 84%
    18:00 +25°C° 0.1 mm 2 mps 762 mmHg 86%
    19:00 +25°C° 0.1 mm 2 mps 763 mmHg 87%
    20:00 +24°C° 0.1 mm 2 mps 763 mmHg 87%
    21:00 +24°C° 0.1 mm 2 mps 764 mmHg 87%
    22:00 +24°C° 0.1 mm 2 mps 764 mmHg 88%
    23:00 +24°C° 0.1 mm 2 mps 764 mmHg 89%

    Tomorrow, 27 September, Wednesday

    Time Temperature Precipitation Wind Pressure Humidity
    00:00 +23°C° 0.1 mm 2 mps 764 mmHg 89%
    01:00 +23°C° 0.1 mm 2 mps 764 mmHg 90%
    02:00 +23°C° 0.1 mm 2 mps 763 mmHg 91%
    03:00 +23°C° 0.1 mm 1 mps 763 mmHg 91%
    04:00 +23°C° 0.1 mm 1 mps 763 mmHg 91%
    05:00 +23°C° 0.1 mm 1 mps 763 mmHg 91%
    06:00 +23°C° 0.1 mm 1 mps 763 mmHg 90%
    07:00 +25°C° 0.1 mm 2 mps 763 mmHg 81%
    08:00 +27°C° 0.1 mm 2 mps 763 mmHg 72%
    09:00 +28°C° 0.1 mm 2 mps 763 mmHg 63%
    10:00 +29°C° 0.1 mm 3 mps 762 mmHg 61%
    11:00 +30°C° 0.1 mm 3 mps 762 mmHg 59%
    12:00 +32°C° 0.1 mm 4 mps 761 mmHg 58%
    13:00 +30°C° 0.1 mm 4 mps 761 mmHg 65%
    14:00 +29°C° 0.1 mm 4 mps 761 mmHg 71%
    15:00 +28°C° 0.1 mm 4 mps 760 mmHg 78%
    16:00 +27°C° 0.3 mm 4 mps 760 mmHg 82%
    17:00 +26°C° 0.3 mm 4 mps 761 mmHg 85%
    18:00 +26°C° 0.3 mm 4 mps 761 mmHg 89%
    19:00 +25°C° 0.6 mm 4 mps 761 mmHg 89%
    20:00 +25°C° 0.6 mm 3 mps 762 mmHg 89%
    21:00 +25°C° 0.6 mm 3 mps 762 mmHg 90%
    22:00 +25°C° 0.9 mm 3 mps 762 mmHg 90%
    23:00 +25°C° 0.9 mm 3 mps 762 mmHg 90%

    Day after tomorrow, 28 September, Thursday

    Time Temperature Precipitation Wind Pressure Humidity
    00:00 +25°C° 0.9 mm 3 mps 762 mmHg 91%
    01:00 +24°C° 1.2 mm 3 mps 762 mmHg 92%
    02:00 +24°C° 1.2 mm 3 mps 762 mmHg 92%
    03:00 +24°C° 1.2 mm 3 mps 762 mmHg 93%
    04:00 +23°C° 1.7 mm 4 mps 763 mmHg 93%
    05:00 +23°C° 1.7 mm 4 mps 763 mmHg 94%
    06:00 +22°C° 1.7 mm 5 mps 763 mmHg 94%
    07:00 +22°C° 0.7 mm 5 mps 763 mmHg 94%
    08:00 +22°C° 0.7 mm 4 mps 764 mmHg 94%
    09:00 +22°C° 0.7 mm 4 mps 764 mmHg 94%
    10:00 +22°C° 0.5 mm 4 mps 764 mmHg 92%
    11:00 +22°C° 0.5 mm 4 mps 764 mmHg 89%
    12:00 +23°C° 0.5 mm 4 mps 763 mmHg 86%
    13:00 +23°C° 0.4 mm 4 mps 763 mmHg 85%
    14:00 +23°C° 0.4 mm 4 mps 763 mmHg 84%
    15:00 +23°C° 0.4 mm 4 mps 762 mmHg 84%
    16:00 +24°C° 0.7 mm 3 mps 763 mmHg 86%
    17:00 +22°C° 0.7 mm 3 mps 763 mmHg 89%
    18:00 +22°C° 0.7 mm 3 mps 764 mmHg 92%
    19:00 +22°C° 1 mm 3 mps 764 mmHg 92%
    20:00 +22°C° 1 mm 3 mps 765 mmHg 92%
    21:00 +22°C° 1 mm 3 mps 765 mmHg 93%
    22:00 +22°C° 1.1 mm 3 mps 765 mmHg 93%
    23:00 +22°C° 1.1 mm 3 mps 765 mmHg 94%

    29 September, Friday

    Time Temperature Precipitation Wind Pressure Humidity
    00:00 +22°C° 1.1 mm 3 mps 765 mmHg 95%
    01:00 +21°C° 0.8 mm 3 mps 765 mmHg 95%
    02:00 +21°C° 0.8 mm 3 mps 765 mmHg 95%
    03:00 +21°C° 0.8 mm 3 mps 765 mmHg 95%
    04:00 +21°C° 0.8 mm 3 mps 765 mmHg 95%
    05:00 +21°C° 0.8 mm 3 mps 766 mmHg 95%
    06:00 +21°C° 0.8 mm 3 mps 766 mmHg 95%
    07:00 +21°C° 0.8 mm 3 mps 766 mmHg 94%
    08:00 +22°C° 0.8 mm 3 mps 766 mmHg 92%
    09:00 +22°C° 0.8 mm 3 mps 766 mmHg 91%
    10:00 +22°C° 0.3 mm 3 mps 765 mmHg 87%
    11:00 +24°C° 0.3 mm 3 mps 765 mmHg 84%
    12:00 +25°C° 0.3 mm 3 mps 764 mmHg 81%
    13:00 +24°C° 0.1 mm 3 mps 764 mmHg 82%
    14:00 +24°C° 0.1 mm 3 mps 763 mmHg 83%
    15:00 +24°C° 0.1 mm 3 mps 763 mmHg 83%
    16:00 +24°C° 0.1 mm 3 mps 763 mmHg 85%
    17:00 +22°C° 0.1 mm 3 mps 763 mmHg 87%
    18:00 +22°C° 0.1 mm 3 mps 763 mmHg 89%
    19:00 +23°C° 0.1 mm 2 mps 764 mmHg 89%
    20:00 +21°C° 0.1 mm 2 mps 764 mmHg 90%
    21:00 +21°C° 0.1 mm 2 mps 764 mmHg 90%
    22:00 +21°C° 0 mm 2 mps 763 mmHg 90%
    23:00 +21°C° 0 mm 2 mps 763 mmHg 89%

    30 September, Saturday

    Time Temperature Precipitation Wind Pressure Humidity
    00:00 +21°C° 0 mm 1 mps 763 mmHg 89%
    01:00 +21°C° 0 mm 1 mps 762 mmHg 87%
    02:00 +21°C° 0 mm 1 mps 762 mmHg 85%
    03:00 +21°C° 0 mm 1 mps 762 mmHg 84%
    04:00 +21°C° 0 mm 1 mps 762 mmHg 81%
    05:00 +22°C° 0 mm 1 mps 762 mmHg 79%
    06:00 +22°C° 0 mm 1 mps 762 mmHg 77%
    07:00 +24°C° 0 mm 1 mps 762 mmHg 68%
    08:00 +27°C° 0 mm 1 mps 762 mmHg 60%
    09:00 +29°C° 0 mm 1 mps 761 mmHg 51%
    10:00 +30°C° 0 mm 2 mps 761 mmHg 50%
    11:00 +30°C° 0 mm 2 mps 760 mmHg 49%
    12:00 +31°C° 0 mm 3 mps 760 mmHg 47%
    13:00 +31°C° 0 mm 3 mps 759 mmHg 48%
    14:00 +31°C° 0 mm 3 mps 758 mmHg 49%
    15:00 +32°C° 0 mm 4 mps 757 mmHg 50%
    16:00 +29°C° 0 mm 3 mps 757 mmHg 60%
    17:00 +27°C° 0 mm 2 mps 758 mmHg 69%
    18:00 +25°C° 0 mm 2 mps 758 mmHg 79%
    19:00 +25°C° 0 mm 1 mps 758 mmHg 74%
    20:00 +26°C° 0 mm 1 mps 758 mmHg 69%
    21:00 +26°C° 0 mm 1 mps 759 mmHg 65%
    22:00 +26°C° 0 mm 1 mps 759 mmHg 61%
    23:00 +26°C° 0 mm 2 mps 759 mmHg 58%

    1 October, Sunday

    Time Temperature Precipitation Wind Pressure Humidity
    00:00 +25°C° 0 mm 2 mps 759 mmHg 55%
    01:00 +25°C° 0.1 mm 2 mps 759 mmHg 55%
    02:00 +25°C° 0.1 mm 2 mps 759 mmHg 55%
    03:00 +25°C° 0.1 mm 2 mps 759 mmHg 55%
    04:00 +25°C° 0 mm 2 mps 760 mmHg 56%
    05:00 +24°C° 0 mm 2 mps 760 mmHg 56%
    06:00 +24°C° 0 mm 1 mps 760 mmHg 57%
    07:00 +26°C° 0 mm 2 mps 760 mmHg 53%
    08:00 +29°C° 0 mm 2 mps 760 mmHg 50%
    09:00 +31°C° 0 mm 2 mps 760 mmHg 47%
    10:00 +31°C° 0 mm 3 mps 760 mmHg 48%
    11:00 +33°C° 0 mm 3 mps 760 mmHg 49%
    12:00 +33°C° 0 mm 3 mps 760 mmHg 50%
    13:00 +31°C° 0 mm 3 mps 759 mmHg 57%
    14:00 +30°C° 0 mm 3 mps 759 mmHg 65%
    15:00 +28°C° 0 mm 3 mps 759 mmHg 73%
    16:00 +27°C° 0 mm 2 mps 759 mmHg 79%
    17:00 +26°C° 0 mm 2 mps 760 mmHg 86%
    18:00 +25°C° 0 mm 2 mps 760 mmHg 92%
    19:00 +25°C° 0 mm 2 mps 760 mmHg 92%
    20:00 +24°C° 0 mm 1 mps 761 mmHg 91%
    21:00 +24°C° 0 mm 1 mps 761 mmHg 91%
    22:00 +24°C° 0 mm 1 mps 761 mmHg 91%
    23:00 +23°C° 0 mm 1 mps 761 mmHg 91%
    Show more